Morrisville, VT

1:30 PM EST on November 21, 2019 (GMT -0500)
Morrisville Stowe State

Weather History for KMVL - September, 2019

Change the Weather History Date:

Wednesday, September 25, 2019

  Actual Average Record
Temperature  
Mean Temperature 58 °F 54 °F  
Max Temperature 66 °F 66 °F 89 °F (2017)
Min Temperature 48 °F 42 °F 30 °F (1997)
Degree Days  
Heating Degree Days 8 11  
Month to date heating degree days 171 175  
Since 1 July heating degree days 236 270  
Cooling Degree Days 0 0  
Month to date cooling degree days 11 13  
Year to date cooling degree days 254 260  
Growing Degree Days 8 (Base 50)    
Moisture  
Dew Point 50 °F    
Average Humidity 83    
Maximum Humidity 96    
Minimum Humidity 52    
Precipitation  
Precipitation T in 0.12 in 1.20 in (2001)
Month to date precipitation 2.92 2.79  
Year to date precipitation 30.15 26.55  
Sea Level Pressure  
Sea Level Pressure 29.85 in    
Wind  
Wind Speed 1 mph ()    
Max Wind Speed 9 mph    
Max Gust Speed 12 mph    
Visibility 9.9 miles    
Events Rain    
T = Trace of Precipitation, MM = Missing Value Source: Averaged Metar Reports

Daily Weather History Graph

Daily Weather History Graph

Search for Another Location

Airport or City:

Astronomy

Sep. 25, 2019 Rise Set
Actual Time 6:40 AM EDT 6:42 PM EDT
Civil Twilight 6:11 AM EDT 7:11 PM EDT
Nautical Twilight 5:37 AM EDT 7:45 PM EDT
Astronomical Twilight 5:02 AM EDT 8:20 PM EDT
Moon 2:18 AM EDT (9/25) 5:23 PM EDT (9/25)
Length of Visible Light 12h 59m
Length of Day
12h 01m
Waning Crescent, 14% of the Moon is Illuminated
Sep 25
Waning Crescent
Sep 28
New
Oct 5
First Quarter
Oct 13
Full
Oct 21
Last Quarter

Hourly Weather History & Observations

Time (EDT) Temp. Dew Point Humidity Pressure Visibility Wind Dir Wind Speed Gust Speed Precip Events Conditions
12:54 AM 54.0 °F 50.0 °F 86% 29.84 in 10.0 mi Calm Calm - N/A   Overcast
1:47 AM 54.0 °F 50.0 °F 86% 29.83 in 10.0 mi Calm Calm - N/A   Overcast
1:54 AM 54.0 °F 51.1 °F 90% 29.84 in 10.0 mi Calm Calm - N/A   Overcast
2:12 AM 54.0 °F 50.0 °F 86% 29.83 in 10.0 mi SW 3.5 mph - N/A   Overcast
2:54 AM 53.1 °F 50.0 °F 89% 29.83 in 10.0 mi Calm Calm - N/A   Overcast
3:54 AM 53.1 °F 51.1 °F 93% 29.83 in 10.0 mi Calm Calm - N/A   Overcast
4:08 AM 53.1 °F 51.1 °F 93% 29.83 in 10.0 mi Calm Calm - N/A   Overcast
4:54 AM 53.1 °F 51.1 °F 93% 29.86 in 10.0 mi Calm Calm - N/A   Overcast
5:54 AM 54.0 °F 51.1 °F 90% 29.86 in 10.0 mi Calm Calm - N/A   Overcast
6:54 AM 54.0 °F 51.1 °F 90% 29.88 in 10.0 mi Calm Calm - N/A   Overcast
7:17 AM 53.1 °F 51.1 °F 93% 29.88 in 10.0 mi Calm Calm - N/A   Overcast
7:54 AM 54.0 °F 51.1 °F 90% 29.89 in 10.0 mi Calm Calm - N/A   Overcast
8:54 AM 55.0 °F 51.1 °F 86% 29.91 in 10.0 mi Calm Calm - N/A   Overcast
9:16 AM 55.0 °F 51.1 °F 86% 29.90 in 8.0 mi North 5.8 mph - 0.00 in Rain Light Rain
9:54 AM 55.0 °F 51.1 °F 86% 29.90 in 10.0 mi NNE 8.1 mph - 0.00 in   Overcast
10:31 AM 57.0 °F 51.1 °F 81% 29.89 in 10.0 mi Variable 3.5 mph - N/A   Overcast
10:54 AM 57.0 °F 50.0 °F 77% 29.90 in 10.0 mi Calm Calm - N/A   Overcast
11:14 AM 55.9 °F 51.1 °F 84% 29.89 in 10.0 mi Calm Calm - N/A   Overcast
11:54 AM 57.9 °F 51.1 °F 78% 29.90 in 10.0 mi Calm Calm - N/A   Overcast
12:03 PM 59.0 °F 51.1 °F 75% 29.88 in 10.0 mi Calm Calm - N/A   Overcast
12:54 PM 61.0 °F 50.0 °F 67% 29.87 in 10.0 mi Calm Calm - N/A   Overcast
1:54 PM 62.1 °F 48.9 °F 62% 29.85 in 10.0 mi Variable 3.5 mph - N/A   Scattered Clouds
2:54 PM 64.0 °F 48.0 °F 56% 29.82 in 10.0 mi East 3.5 mph - N/A   Clear
3:54 PM 66.0 °F 48.0 °F 52% 29.80 in 10.0 mi Calm Calm - N/A   Clear
4:54 PM 66.0 °F 48.9 °F 54% 29.81 in 10.0 mi SSW 5.8 mph - N/A   Clear
5:54 PM 62.1 °F 53.1 °F 72% 29.81 in 10.0 mi Calm Calm - N/A   Clear
6:54 PM 55.0 °F 52.0 °F 89% 29.82 in 10.0 mi Calm Calm - N/A   Clear
7:54 PM 52.0 °F 50.0 °F 93% 29.82 in 10.0 mi Calm Calm - N/A   Clear
8:54 PM 50.0 °F 48.9 °F 96% 29.83 in 10.0 mi Calm Calm - N/A   Clear
9:54 PM 50.0 °F 48.0 °F 93% 29.82 in 10.0 mi South 3.5 mph - N/A   Clear
10:54 PM 51.1 °F 48.9 °F 92% 29.82 in 10.0 mi South 4.6 mph - N/A   Clear
11:54 PM 50.0 °F 48.9 °F 96% 29.81 in 10.0 mi Calm Calm - N/A   Mostly Cloudy